EW4496 Weather Reports


time (UTC)temp
C
wind
direction
speed
KPH
gust
KPH
rain 1hr
cm
rain 24hr
cm
rain mn
cm
humidity
%
barometer
mb
20260508050054 17 321 0.0 0.0 0.00 0.00 0.00 81 1014.9
20260508044554 17 321 0.0 0.0 0.00 0.00 0.00 79 1014.7
20260508043059 17 323 0.0 0.0 0.00 0.00 0.00 78 1014.5
20260508041555 18 352 0.0 0.0 0.00 0.00 0.00 77 1014.4
20260508040055 19 318 0.0 0.0 0.00 0.00 0.00 76 1014.2
20260508034555 20 302 0.0 0.0 0.00 0.00 0.00 74 1014.1
20260508033054 21 321 0.0 4.8 0.00 0.00 0.00 71 1013.9
20260508031601 22 304 0.0 6.4 0.00 0.00 0.00 67 1013.7
20260508030126 23 271 0.0 1.6 0.00 0.00 0.00 65 1013.5
20260508024510 25 307 0.0 4.8 0.00 0.00 0.00 61 1013.5
20260508023010 27 321 0.0 4.8 0.00 0.00 0.00 57 1013.4
20260508021511 28 290 0.0 0.0 0.00 0.00 0.00 54 1013.2
20260508020010 29 304 0.0 0.0 0.00 0.00 0.00 49 1013.2
20260508014511 29 283 0.0 0.0 0.00 0.00 0.00 48 1013.3
20260508013012 29 249 0.0 3.2 0.00 0.00 0.00 48 1013.4
20260508011525 29 325 0.0 1.6 0.00 0.00 0.00 47 1013.5
20260508010040 29 312 0.0 1.6 0.00 0.00 0.00 46 1013.5
20260508004530 29 352 0.0 1.6 0.00 0.00 0.00 46 1013.5
20260508003024 30 294 0.0 3.2 0.00 0.00 0.00 46 1013.6
20260508001525 29 311 0.0 1.6 0.00 0.00 0.00 47 1013.7
20260508000058 29 355 0.0 1.6 0.00 0.00 0.00 46 1013.7
20260507234509 28 324 0.0 4.8 0.00 0.00 0.00 48 1013.7
20260507233009 28 317 0.0 1.6 0.00 0.00 0.00 48 1013.7
20260507231511 28 340 0.0 0.0 0.00 0.00 0.00 48 1014.0
20260507230009 28 278 0.0 1.6 0.00 0.00 0.00 48 1014.2
20260507224513 28 32 0.0 3.2 0.00 0.00 0.00 50 1014.5
20260507223009 28 345 0.0 1.6 0.00 0.00 0.00 49 1014.7
20260507221512 27 306 0.0 0.0 0.00 0.00 0.00 50 1015.0
20260507220008 27 337 0.0 0.0 0.00 0.00 0.00 50 1015.2
20260507214510 27 333 0.0 3.2 0.00 0.00 0.00 51 1015.4
20260507213009 27 352 0.0 3.2 0.00 0.00 0.00 50 1015.7
20260507211542 26 360 0.0 3.2 0.00 0.00 0.00 52 1015.8
20260507210039 26 188 0.0 0.0 0.00 0.00 0.00 53 1016.0
20260507204539 26 17 0.0 1.6 0.00 0.00 0.00 54 1016.2
20260507203039 25 346 0.0 0.0 0.00 0.00 0.00 54 1016.4
20260507201542 25 298 0.0 1.6 0.00 0.00 0.00 56 1016.5
20260507200039 25 289 0.0 4.8 0.00 0.00 0.00 57 1016.6
20260507194538 24 278 0.0 0.0 0.00 0.00 0.00 57 1016.9
20260507193039 23 212 0.0 4.8 0.00 0.00 0.00 60 1017.0
20260507191538 23 321 0.0 3.2 0.00 0.00 0.00 62 1017.2
20260507190038 22 355 0.0 8.0 0.00 0.00 0.00 63 1017.3
20260507184538 22 323 0.0 4.8 0.00 0.00 0.00 64 1017.4
20260507183046 22 6 0.0 4.8 0.00 0.00 0.00 64 1017.5
20260507181542 22 315 0.0 1.6 0.00 0.00 0.00 64 1017.5
20260507180050 21 358 0.0 1.6 0.00 0.00 0.00 64 1017.6
20260507174606 21 293 0.0 0.0 0.00 0.00 0.00 68 1017.7
20260507173053 21 333 0.0 1.6 0.00 0.00 0.00 69 1017.7
20260507171604 20 341 0.0 0.0 0.00 0.00 0.00 71 1017.7
20260507170053 19 351 0.0 0.0 0.00 0.00 0.00 74 1017.8
20260507164552 18 308 0.0 0.0 0.00 0.00 0.00 74 1017.8
20260507163107 18 351 0.0 0.0 0.00 0.00 0.00 77 1017.8
20260507161607 17 348 0.0 0.0 0.00 0.00 0.00 81 1017.9
20260507160108 16 313 0.0 0.0 0.00 0.00 0.00 83 1018.1
20260507154607 15 336 0.0 0.0 0.00 0.00 0.00 86 1018.1
20260507153106 15 285 0.0 0.0 0.00 0.00 0.00 85 1018.2
20260507151522 16 327 0.0 0.0 0.00 0.00 0.00 84 1018.1
20260507150026 15 326 0.0 0.0 0.00 0.00 0.00 85 1018.1
20260507144529 15 337 0.0 0.0 0.00 0.00 0.00 86 1018.2
20260507143039 14 294 0.0 1.6 0.00 0.00 0.00 88 1018.0
20260507141544 13 314 0.0 0.0 0.00 0.00 0.00 88 1017.9
20260507140037 13 290 0.0 0.0 0.00 0.00 0.00 91 1017.8
20260507134536 12 332 0.0 0.0 0.00 0.00 0.00 92 1017.7
20260507133055 11 290 0.0 0.0 0.00 0.00 0.00 94 1017.6
20260507131551 11 288 0.0 0.0 0.00 0.00 0.00 94 1017.5
20260507130104 11 278 0.0 0.0 0.00 0.00 0.00 93 1017.5
20260507124618 11 280 0.0 0.0 0.00 0.00 0.00 93 1017.3
20260507123050 11 241 0.0 0.0 0.00 0.00 0.00 93 1017.3
20260507121553 11 262 0.0 0.0 0.00 0.00 0.00 93 1017.3
20260507120051 11 262 0.0 0.0 0.00 0.00 0.00 92 1017.3
20260507114609 12 262 0.0 0.0 0.00 0.00 0.00 92 1017.3
20260507113055 12 262 0.0 0.0 0.00 0.00 0.00 92 1017.3
20260507111551 12 262 0.0 0.0 0.00 0.00 0.00 92 1017.2
20260507110051 12 262 0.0 0.0 0.00 0.00 0.00 92 1017.2
20260507104558 12 262 0.0 0.0 0.00 0.00 0.00 91 1017.2
20260507103005 12 266 0.0 0.0 0.00 0.00 0.00 90 1017.2
20260507101507 12 266 0.0 0.0 0.00 0.00 0.00 90 1017.2
20260507100006 12 266 0.0 0.0 0.00 0.00 0.00 89 1017.2
20260507094505 13 266 0.0 0.0 0.00 0.00 0.00 88 1017.3
20260507093005 13 267 0.0 0.0 0.00 0.00 0.00 87 1017.3
20260507091534 13 236 0.0 0.0 0.00 0.00 0.00 86 1017.3
20260507090022 13 226 0.0 0.0 0.00 0.00 0.00 86 1017.3
20260507084524 13 193 0.0 0.0 0.00 0.00 0.00 86 1017.4
20260507083020 14 242 0.0 0.0 0.00 0.00 0.00 85 1017.4
20260507081521 14 219 0.0 0.0 0.00 0.00 0.00 85 1017.5
20260507080020 14 233 0.0 0.0 0.00 0.00 0.00 86 1017.4
20260507074523 14 233 0.0 0.0 0.00 0.00 0.00 85 1017.4
20260507073020 15 233 0.0 0.0 0.00 0.00 0.00 84 1017.5
20260507071540 15 233 0.0 0.0 0.00 0.00 0.00 86 1017.4
20260507070050 15 235 0.0 0.0 0.00 0.00 0.00 86 1017.4
20260507064657 15 227 0.0 0.0 0.00 0.00 0.00 85 1017.3
20260507063052 15 217 0.0 0.0 0.00 0.00 0.00 84 1017.3
20260507061555 16 217 0.0 0.0 0.00 0.00 0.00 83 1017.2
20260507060055 16 266 0.0 0.0 0.00 0.00 0.00 82 1017.2
20260507054556 16 231 0.0 0.0 0.00 0.00 0.00 82 1017.1
20260507053055 16 243 0.0 0.0 0.00 0.00 0.00 82 1017.2
20260507051600 16 243 0.0 0.0 0.00 0.00 0.00 82 1017.1